This is the latest recevied weather packets stored in our database for station/object KB4NWJ. If no packets are shown the sender has not sent any weather packets the latest 10 day(s).
| Time | Temp. | Humidity | Pressure | Rain* | Wind** | Luminosity | Snow |
|---|---|---|---|---|---|---|---|
| 1777034415 | 17.78° C | 86% | 1016 hPa | 0 mm | - | 124 W/m² | - |
| 1777034112 | 16.11° C | 92% | 1015.8 hPa | 0 mm | - | 108 W/m² | - |
| 1777033811 | 16.11° C | 92% | 1015.9 hPa | 0 mm | - | 100 W/m² | - |
| 1777033509 | 15° C | 97% | 1015.8 hPa | 0 mm | - | 93 W/m² | - |
| 1777033201 | 14.44° C | 99% | 1015.8 hPa | 0 mm | - | 78 W/m² | - |
| 1777032897 | 13.89° C | 99% | 1015.7 hPa | 0 mm | - | 73 W/m² | - |
| 1777032593 | 13.89° C | 99% | 1015.7 hPa | 0 mm | - | 63 W/m² | - |
| 1777032288 | 13.33° C | 99% | 1015.7 hPa | 0 mm | - | 55 W/m² | - |
| 1777031984 | 12.78° C | 99% | 1015.6 hPa | 0 mm | - | 40 W/m² | - |
| 1777031678 | 12.22° C | 99% | 1015.5 hPa | 0 mm | - | 38 W/m² | - |
| 1777031373 | 11.67° C | 99% | 1015.5 hPa | 0 mm | - | 32 W/m² | - |
| 1777031069 | 11.67° C | 99% | 1015.5 hPa | 0 mm | - | 29 W/m² | - |
| 1777030761 | 11.67° C | 99% | 1015.6 hPa | 0 mm | - | 26 W/m² | - |
| 1777030460 | 11.67° C | 99% | 1015.5 hPa | 0 mm | - | 21 W/m² | - |
| 1777030156 | 11.11° C | 99% | 1015.4 hPa | 0 mm | - | 18 W/m² | - |
| 1777029853 | 11.11° C | 99% | 1015.3 hPa | 0 mm | - | 13 W/m² | - |
| 1777029549 | 11.11° C | 99% | 1015.6 hPa | 0 mm | - | 10 W/m² | - |
| 1777029247 | 11.11° C | 99% | 1015.6 hPa | 0 mm | - | 7 W/m² | - |
| 1777028943 | 11.11° C | 99% | 1015.5 hPa | 0 mm | - | 5 W/m² | - |
| 1777028642 | 11.11° C | 99% | 1015.3 hPa | 0 mm | - | 2 W/m² | - |
| 1777028337 | 11.67° C | 99% | 1015.2 hPa | 0 mm | - | 0 W/m² | - |
| 1777028033 | 11.67° C | 99% | 1015.5 hPa | 0 mm | - | 0 W/m² | - |
| 1777027728 | 11.67° C | 99% | 1015.3 hPa | 0 mm | - | 0 W/m² | - |
| 1777027424 | 11.67° C | 99% | 1015.4 hPa | 0 mm | - | 0 W/m² | - |
| 1777027121 | 11.67° C | 99% | 1015.4 hPa | 0 mm | - | 0 W/m² | - |
* Rain latest hour (hover to see other rain measurements)
** Current wind speed in m/s (hover to see current wind gust speed)